owner,sensor,date,latitude,longitude,vertical_datum,sea_water_practical_salinity,qcFlag 
DISL,ioos:station:DISL:CATA:1,2010-01-01T00:00:00Z,30.3085,-88.1395,2.81,1.76,1111122 
DISL,ioos:station:DISL:CATA:1,2010-01-01T00:30:00Z,30.3085,-88.1395,2.859,1.73,1111122 
DISL,ioos:station:DISL:CATA:1,2010-01-01T01:00:00Z,30.3085,-88.1395,2.897,1.88,1111122 
DISL,ioos:station:DISL:CATA:1,2010-01-01T01:30:00Z,30.3085,-88.1395,2.93,2.86,1111122 
DISL,ioos:station:DISL:CATA:1,2010-01-01T02:00:00Z,30.3085,-88.1395,2.966,3.94,1111122 
DISL,ioos:station:DISL:CATA:1,2010-01-01T02:30:00Z,30.3085,-88.1395,2.977,6.06,1111122 
DISL,ioos:station:DISL:CATA:1,2010-01-01T03:00:00Z,30.3085,-88.1395,2.978,8.19,1111122 
DISL,ioos:station:DISL:CATA:1,2010-01-01T03:30:00Z,30.3085,-88.1395,2.978,9.79,1111122 
DISL,ioos:station:DISL:CATA:1,2010-01-01T04:00:00Z,30.3085,-88.1395,2.966,12.12,1111122 
DISL,ioos:station:DISL:CATA:1,2010-01-01T04:30:00Z,30.3085,-88.1395,2.959,13.5,1111122 
DISL,ioos:station:DISL:CATA:1,2010-01-01T05:00:00Z,30.3085,-88.1395,2.913,14.36,1111122 
DISL,ioos:station:DISL:CATA:1,2010-01-01T05:30:00Z,30.3085,-88.1395,2.885,14.89,1111122 
DISL,ioos:station:DISL:CATA:1,2010-01-01T06:00:00Z,30.3085,-88.1395,2.852,15.13,1111122 
DISL,ioos:station:DISL:CATA:1,2010-01-01T06:30:00Z,30.3085,-88.1395,2.817,14.12,1111122 
DISL,ioos:station:DISL:CATA:1,2010-01-01T07:00:00Z,30.3085,-88.1395,2.795,2.73,1111122 
DISL,ioos:station:DISL:CATA:1,2010-01-01T07:30:00Z,30.3085,-88.1395,2.742,1.83,1111122 
DISL,ioos:station:DISL:CATA:1,2010-01-01T08:00:00Z,30.3085,-88.1395,2.714,1.89,1111122 
DISL,ioos:station:DISL:CATA:1,2010-01-01T08:30:00Z,30.3085,-88.1395,2.661,1.76,1111122 
DISL,ioos:station:DISL:CATA:1,2010-01-01T09:00:00Z,30.3085,-88.1395,2.597,1.72,1111122 
DISL,ioos:station:DISL:CATA:1,2010-01-01T09:30:00Z,30.3085,-88.1395,2.541,1.76,1111122 
DISL,ioos:station:DISL:CATA:1,2010-01-01T10:00:00Z,30.3085,-88.1395,2.471,1.89,1111122 
DISL,ioos:station:DISL:CATA:1,2010-01-01T10:30:00Z,30.3085,-88.1395,2.405,2.04,1111122 
DISL,ioos:station:DISL:CATA:1,2010-01-01T11:00:00Z,30.3085,-88.1395,2.348,2.46,1111122 
DISL,ioos:station:DISL:CATA:1,2010-01-01T11:30:00Z,30.3085,-88.1395,2.313,2.41,1111122 
DISL,ioos:station:DISL:CATA:1,2010-01-01T12:00:00Z,30.3085,-88.1395,2.246,2.52,1111122 
DISL,ioos:station:DISL:CATA:1,2010-01-01T12:30:00Z,30.3085,-88.1395,2.214,2.71,1111122 
DISL,ioos:station:DISL:CATA:1,2010-01-01T13:00:00Z,30.3085,-88.1395,2.214,2.84,1111122 
DISL,ioos:station:DISL:CATA:1,2010-01-01T13:30:00Z,30.3085,-88.1395,2.2,2.94,1111122 
DISL,ioos:station:DISL:CATA:1,2010-01-01T14:00:00Z,30.3085,-88.1395,2.192,3.07,1111122 
DISL,ioos:station:DISL:CATA:1,2010-01-01T14:30:00Z,30.3085,-88.1395,2.185,3.15,1111122 
DISL,ioos:station:DISL:CATA:1,2010-01-01T15:00:00Z,30.3085,-88.1395,2.205,3.19,1111122 
DISL,ioos:station:DISL:CATA:1,2010-01-01T15:30:00Z,30.3085,-88.1395,2.219,3.24,1111122 
DISL,ioos:station:DISL:CATA:1,2010-01-01T16:00:00Z,30.3085,-88.1395,2.196,3.25,1111122 
DISL,ioos:station:DISL:CATA:1,2010-01-01T16:30:00Z,30.3085,-88.1395,2.199,3.26,1111122 
DISL,ioos:station:DISL:CATA:1,2010-01-01T17:00:00Z,30.3085,-88.1395,2.179,3.25,1111122 
DISL,ioos:station:DISL:CATA:1,2010-01-01T17:30:00Z,30.3085,-88.1395,2.158,3.28,1111122 
DISL,ioos:station:DISL:CATA:1,2010-01-01T18:00:00Z,30.3085,-88.1395,2.138,3.31,1111122 
DISL,ioos:station:DISL:CATA:1,2010-01-01T18:30:00Z,30.3085,-88.1395,2.177,3.34,1111122 
DISL,ioos:station:DISL:CATA:1,2010-01-01T19:00:00Z,30.3085,-88.1395,2.231,3.5,1111122 
DISL,ioos:station:DISL:CATA:1,2010-01-01T19:30:00Z,30.3085,-88.1395,2.288,3.65,1111122 
DISL,ioos:station:DISL:CATA:1,2010-01-01T20:00:00Z,30.3085,-88.1395,2.314,3.27,1111122 
DISL,ioos:station:DISL:CATA:1,2010-01-01T20:30:00Z,30.3085,-88.1395,2.332,3.24,1111122 
DISL,ioos:station:DISL:CATA:1,2010-01-01T21:00:00Z,30.3085,-88.1395,2.362,3.21,1111122 
DISL,ioos:station:DISL:CATA:1,2010-01-01T21:30:00Z,30.3085,-88.1395,2.389,3.14,1111122 
DISL,ioos:station:DISL:CATA:1,2010-01-01T22:00:00Z,30.3085,-88.1395,2.411,3.14,1111122 
DISL,ioos:station:DISL:CATA:1,2010-01-01T22:30:00Z,30.3085,-88.1395,2.457,3.1,1111122 
DISL,ioos:station:DISL:CATA:1,2010-01-01T23:00:00Z,30.3085,-88.1395,2.504,3.1,1111122 
DISL,ioos:station:DISL:CATA:1,2010-01-01T23:30:00Z,30.3085,-88.1395,2.517,3.2,1111122 
DISL,ioos:station:DISL:CATA:1,2010-01-02T00:00:00Z,30.3085,-88.1395,2.544,3.21,1111122 
DISL,ioos:station:DISL:CATA:1,2010-01-02T00:30:00Z,30.3085,-88.1395,2.595,3.26,1111122 
DISL,ioos:station:DISL:CATA:1,2010-01-02T01:00:00Z,30.3085,-88.1395,2.63,3.26,1111122 
DISL,ioos:station:DISL:CATA:1,2010-01-02T01:30:00Z,30.3085,-88.1395,2.655,3.36,1111122 
DISL,ioos:station:DISL:CATA:1,2010-01-02T02:00:00Z,30.3085,-88.1395,2.713,3.62,1111122 
DISL,ioos:station:DISL:CATA:1,2010-01-02T02:30:00Z,30.3085,-88.1395,2.777,3.82,1111122 
DISL,ioos:station:DISL:CATA:1,2010-01-02T03:00:00Z,30.3085,-88.1395,2.772,5.85,1111122 
DISL,ioos:station:DISL:CATA:1,2010-01-02T03:30:00Z,30.3085,-88.1395,2.761,11.0,1111122 
DISL,ioos:station:DISL:CATA:1,2010-01-02T04:00:00Z,30.3085,-88.1395,2.757,11.02,1111122 
DISL,ioos:station:DISL:CATA:1,2010-01-02T04:30:00Z,30.3085,-88.1395,2.753,11.9,1111122 
DISL,ioos:station:DISL:CATA:1,2010-01-02T05:00:00Z,30.3085,-88.1395,2.718,14.13,1111122 
DISL,ioos:station:DISL:CATA:1,2010-01-02T05:30:00Z,30.3085,-88.1395,2.696,15.54,1111122 
DISL,ioos:station:DISL:CATA:1,2010-01-02T06:00:00Z,30.3085,-88.1395,2.668,15.89,1111122 
DISL,ioos:station:DISL:CATA:1,2010-01-02T06:30:00Z,30.3085,-88.1395,2.654,15.99,1111122 
DISL,ioos:station:DISL:CATA:1,2010-01-02T07:00:00Z,30.3085,-88.1395,2.634,15.9,1111122 
DISL,ioos:station:DISL:CATA:1,2010-01-02T07:30:00Z,30.3085,-88.1395,2.596,11.73,1111122 
DISL,ioos:station:DISL:CATA:1,2010-01-02T08:00:00Z,30.3085,-88.1395,2.557,5.89,1111122 
DISL,ioos:station:DISL:CATA:1,2010-01-02T08:30:00Z,30.3085,-88.1395,2.498,4.96,1111122 
DISL,ioos:station:DISL:CATA:1,2010-01-02T09:00:00Z,30.3085,-88.1395,2.447,4.96,1111122 
DISL,ioos:station:DISL:CATA:1,2010-01-02T09:30:00Z,30.3085,-88.1395,2.391,4.9,1111122 
DISL,ioos:station:DISL:CATA:1,2010-01-02T10:00:00Z,30.3085,-88.1395,2.346,5.05,1111122 
DISL,ioos:station:DISL:CATA:1,2010-01-02T10:30:00Z,30.3085,-88.1395,2.292,4.81,1111122 
DISL,ioos:station:DISL:CATA:1,2010-01-02T11:00:00Z,30.3085,-88.1395,2.244,4.39,1111122 
DISL,ioos:station:DISL:CATA:1,2010-01-02T11:30:00Z,30.3085,-88.1395,2.208,4.19,1111122 
DISL,ioos:station:DISL:CATA:1,2010-01-02T12:00:00Z,30.3085,-88.1395,2.168,3.98,1111122 
DISL,ioos:station:DISL:CATA:1,2010-01-02T12:30:00Z,30.3085,-88.1395,2.139,3.93,1111122 
DISL,ioos:station:DISL:CATA:1,2010-01-02T13:00:00Z,30.3085,-88.1395,2.099,3.97,1111122 
DISL,ioos:station:DISL:CATA:1,2010-01-02T13:30:00Z,30.3085,-88.1395,2.07,3.98,1111122 
DISL,ioos:station:DISL:CATA:1,2010-01-02T14:00:00Z,30.3085,-88.1395,2.066,3.82,1111122 
DISL,ioos:station:DISL:CATA:1,2010-01-02T14:30:00Z,30.3085,-88.1395,2.063,3.57,1111122 
DISL,ioos:station:DISL:CATA:1,2010-01-02T15:00:00Z,30.3085,-88.1395,2.058,3.37,1111122 
DISL,ioos:station:DISL:CATA:1,2010-01-02T15:30:00Z,30.3085,-88.1395,2.051,3.19,1111122 
DISL,ioos:station:DISL:CATA:1,2010-01-02T16:00:00Z,30.3085,-88.1395,2.058,3.13,1111122 
DISL,ioos:station:DISL:CATA:1,2010-01-02T16:30:00Z,30.3085,-88.1395,2.074,3.07,1111122 
DISL,ioos:station:DISL:CATA:1,2010-01-02T17:00:00Z,30.3085,-88.1395,2.093,3.01,1111122 
DISL,ioos:station:DISL:CATA:1,2010-01-02T17:30:00Z,30.3085,-88.1395,2.113,2.96,1111122 
DISL,ioos:station:DISL:CATA:1,2010-01-02T18:00:00Z,30.3085,-88.1395,2.133,2.98,1111122 
DISL,ioos:station:DISL:CATA:1,2010-01-02T18:30:00Z,30.3085,-88.1395,2.163,3.1,1111122 
DISL,ioos:station:DISL:CATA:1,2010-01-02T19:00:00Z,30.3085,-88.1395,2.211,2.92,1111122 
DISL,ioos:station:DISL:CATA:1,2010-01-02T19:30:00Z,30.3085,-88.1395,2.21,2.93,1111122 
DISL,ioos:station:DISL:CATA:1,2010-01-02T20:00:00Z,30.3085,-88.1395,2.227,3.46,1111122 
DISL,ioos:station:DISL:CATA:1,2010-01-02T20:30:00Z,30.3085,-88.1395,2.26,3.57,1111122 
DISL,ioos:station:DISL:CATA:1,2010-01-02T21:00:00Z,30.3085,-88.1395,2.284,3.68,1111122 
DISL,ioos:station:DISL:CATA:1,2010-01-02T21:30:00Z,30.3085,-88.1395,2.278,3.75,1111122 
DISL,ioos:station:DISL:CATA:1,2010-01-02T22:00:00Z,30.3085,-88.1395,2.305,3.87,1111122 
DISL,ioos:station:DISL:CATA:1,2010-01-02T22:30:00Z,30.3085,-88.1395,2.337,3.93,1111122 
DISL,ioos:station:DISL:CATA:1,2010-01-02T23:00:00Z,30.3085,-88.1395,2.355,4.36,1111122 
DISL,ioos:station:DISL:CATA:1,2010-01-02T23:30:00Z,30.3085,-88.1395,2.377,5.4,1111122 
DISL,ioos:station:DISL:CATA:1,2010-01-03T00:00:00Z,30.3085,-88.1395,2.393,6.04,1111122 
DISL,ioos:station:DISL:CATA:1,2010-01-03T00:30:00Z,30.3085,-88.1395,2.435,5.82,1111122 
DISL,ioos:station:DISL:CATA:1,2010-01-03T01:00:00Z,30.3085,-88.1395,2.488,6.54,1111122 
DISL,ioos:station:DISL:CATA:1,2010-01-03T01:30:00Z,30.3085,-88.1395,2.539,6.76,1111122 
DISL,ioos:station:DISL:CATA:1,2010-01-03T02:00:00Z,30.3085,-88.1395,2.569,7.01,1111122 
DISL,ioos:station:DISL:CATA:1,2010-01-03T02:30:00Z,30.3085,-88.1395,2.591,7.56,1111122 
DISL,ioos:station:DISL:CATA:1,2010-01-03T03:00:00Z,30.3085,-88.1395,2.627,8.98,1111122 
DISL,ioos:station:DISL:CATA:1,2010-01-03T03:30:00Z,30.3085,-88.1395,2.665,10.07,1111122 
DISL,ioos:station:DISL:CATA:1,2010-01-03T04:00:00Z,30.3085,-88.1395,2.682,11.97,1111122 
DISL,ioos:station:DISL:CATA:1,2010-01-03T04:30:00Z,30.3085,-88.1395,2.688,13.34,1111122 
DISL,ioos:station:DISL:CATA:1,2010-01-03T05:00:00Z,30.3085,-88.1395,2.684,14.02,1111122 
DISL,ioos:station:DISL:CATA:1,2010-01-03T05:30:00Z,30.3085,-88.1395,2.672,14.48,1111122 
DISL,ioos:station:DISL:CATA:1,2010-01-03T06:00:00Z,30.3085,-88.1395,2.674,15.1,1111122 
DISL,ioos:station:DISL:CATA:1,2010-01-03T06:30:00Z,30.3085,-88.1395,2.629,14.64,1111122 
DISL,ioos:station:DISL:CATA:1,2010-01-03T07:00:00Z,30.3085,-88.1395,2.605,8.4,1111122 
DISL,ioos:station:DISL:CATA:1,2010-01-03T07:30:00Z,30.3085,-88.1395,2.587,4.32,1111122 
DISL,ioos:station:DISL:CATA:1,2010-01-03T08:00:00Z,30.3085,-88.1395,2.573,4.07,1111122 
DISL,ioos:station:DISL:CATA:1,2010-01-03T08:30:00Z,30.3085,-88.1395,2.528,4.27,1111122 
DISL,ioos:station:DISL:CATA:1,2010-01-03T09:00:00Z,30.3085,-88.1395,2.489,3.26,1111122 
DISL,ioos:station:DISL:CATA:1,2010-01-03T09:30:00Z,30.3085,-88.1395,2.432,3.02,1111122 
DISL,ioos:station:DISL:CATA:1,2010-01-03T10:00:00Z,30.3085,-88.1395,2.399,2.73,1111122 
DISL,ioos:station:DISL:CATA:1,2010-01-03T10:30:00Z,30.3085,-88.1395,2.357,2.53,1111122 
DISL,ioos:station:DISL:CATA:1,2010-01-03T11:00:00Z,30.3085,-88.1395,2.319,2.18,1111122 
DISL,ioos:station:DISL:CATA:1,2010-01-03T11:30:00Z,30.3085,-88.1395,2.286,1.95,1111122 
DISL,ioos:station:DISL:CATA:1,2010-01-03T12:00:00Z,30.3085,-88.1395,2.262,1.75,1111122 
DISL,ioos:station:DISL:CATA:1,2010-01-03T12:30:00Z,30.3085,-88.1395,2.236,1.83,1111122 
DISL,ioos:station:DISL:CATA:1,2010-01-03T13:00:00Z,30.3085,-88.1395,2.208,2.02,1111122 
DISL,ioos:station:DISL:CATA:1,2010-01-03T13:30:00Z,30.3085,-88.1395,2.19,2.15,1111122 
DISL,ioos:station:DISL:CATA:1,2010-01-03T14:00:00Z,30.3085,-88.1395,2.168,2.18,1111122 
DISL,ioos:station:DISL:CATA:1,2010-01-03T14:30:00Z,30.3085,-88.1395,2.164,2.2,1111122 
DISL,ioos:station:DISL:CATA:1,2010-01-03T15:00:00Z,30.3085,-88.1395,2.16,2.19,1111122 
DISL,ioos:station:DISL:CATA:1,2010-01-03T15:30:00Z,30.3085,-88.1395,2.153,2.17,1111122 
DISL,ioos:station:DISL:CATA:1,2010-01-03T16:00:00Z,30.3085,-88.1395,2.145,2.21,1111122 
DISL,ioos:station:DISL:CATA:1,2010-01-03T16:30:00Z,30.3085,-88.1395,2.131,2.22,1111122 
DISL,ioos:station:DISL:CATA:1,2010-01-03T17:00:00Z,30.3085,-88.1395,2.125,2.21,1111122 
DISL,ioos:station:DISL:CATA:1,2010-01-03T17:30:00Z,30.3085,-88.1395,2.132,2.16,1111122 
DISL,ioos:station:DISL:CATA:1,2010-01-03T18:00:00Z,30.3085,-88.1395,2.14,2.11,1111122 
DISL,ioos:station:DISL:CATA:1,2010-01-03T18:30:00Z,30.3085,-88.1395,2.159,2.09,1111122 
DISL,ioos:station:DISL:CATA:1,2010-01-03T19:00:00Z,30.3085,-88.1395,2.18,2.19,1111122 
DISL,ioos:station:DISL:CATA:1,2010-01-03T19:30:00Z,30.3085,-88.1395,2.203,2.22,1111122 
DISL,ioos:station:DISL:CATA:1,2010-01-03T20:00:00Z,30.3085,-88.1395,2.227,2.35,1111122 
DISL,ioos:station:DISL:CATA:1,2010-01-03T20:30:00Z,30.3085,-88.1395,2.258,2.26,1111122 
DISL,ioos:station:DISL:CATA:1,2010-01-03T21:00:00Z,30.3085,-88.1395,2.272,1.76,1111122 
DISL,ioos:station:DISL:CATA:1,2010-01-03T21:30:00Z,30.3085,-88.1395,2.286,1.72,1111122 
DISL,ioos:station:DISL:CATA:1,2010-01-03T22:00:00Z,30.3085,-88.1395,2.302,1.58,1111122 
DISL,ioos:station:DISL:CATA:1,2010-01-03T22:30:00Z,30.3085,-88.1395,2.323,1.47,1111122 
DISL,ioos:station:DISL:CATA:1,2010-01-03T23:00:00Z,30.3085,-88.1395,2.35,1.69,1111122 
DISL,ioos:station:DISL:CATA:1,2010-01-03T23:30:00Z,30.3085,-88.1395,2.354,1.86,1111122 
DISL,ioos:station:DISL:CATA:1,2010-01-04T00:00:00Z,30.3085,-88.1395,2.388,3.15,1111122 
DISL,ioos:station:DISL:CATA:1,2010-01-04T00:30:00Z,30.3085,-88.1395,2.426,3.69,1111122 
DISL,ioos:station:DISL:CATA:1,2010-01-04T01:00:00Z,30.3085,-88.1395,2.459,3.94,1111122 
DISL,ioos:station:DISL:CATA:1,2010-01-04T01:30:00Z,30.3085,-88.1395,2.466,3.99,1111122 
DISL,ioos:station:DISL:CATA:1,2010-01-04T02:00:00Z,30.3085,-88.1395,2.482,4.73,1111122 
DISL,ioos:station:DISL:CATA:1,2010-01-04T02:30:00Z,30.3085,-88.1395,2.513,5.45,1111122 
DISL,ioos:station:DISL:CATA:1,2010-01-04T03:00:00Z,30.3085,-88.1395,2.554,10.03,1111122 
DISL,ioos:station:DISL:CATA:1,2010-01-04T03:30:00Z,30.3085,-88.1395,2.562,13.77,1111122 
DISL,ioos:station:DISL:CATA:1,2010-01-04T04:00:00Z,30.3085,-88.1395,2.583,15.15,1111122 
DISL,ioos:station:DISL:CATA:1,2010-01-04T04:30:00Z,30.3085,-88.1395,2.57,16.2,1111122 
DISL,ioos:station:DISL:CATA:1,2010-01-04T05:00:00Z,30.3085,-88.1395,2.574,17.07,1111122 
DISL,ioos:station:DISL:CATA:1,2010-01-04T05:30:00Z,30.3085,-88.1395,2.569,17.37,1111122 
DISL,ioos:station:DISL:CATA:1,2010-01-04T06:00:00Z,30.3085,-88.1395,2.56,17.89,1111122 
DISL,ioos:station:DISL:CATA:1,2010-01-04T06:30:00Z,30.3085,-88.1395,2.564,18.42,1111122 
DISL,ioos:station:DISL:CATA:1,2010-01-04T07:00:00Z,30.3085,-88.1395,2.563,18.52,1111122 
DISL,ioos:station:DISL:CATA:1,2010-01-04T07:30:00Z,30.3085,-88.1395,2.542,18.61,1111122 
DISL,ioos:station:DISL:CATA:1,2010-01-04T08:00:00Z,30.3085,-88.1395,2.534,18.21,1111122 
DISL,ioos:station:DISL:CATA:1,2010-01-04T08:30:00Z,30.3085,-88.1395,2.533,12.64,1111122 
DISL,ioos:station:DISL:CATA:1,2010-01-04T09:00:00Z,30.3085,-88.1395,2.539,4.83,1111122 
DISL,ioos:station:DISL:CATA:1,2010-01-04T09:30:00Z,30.3085,-88.1395,2.511,3.67,1111122 
DISL,ioos:station:DISL:CATA:1,2010-01-04T10:00:00Z,30.3085,-88.1395,2.479,3.87,1111122 
DISL,ioos:station:DISL:CATA:1,2010-01-04T10:30:00Z,30.3085,-88.1395,2.448,4.21,1111122 
DISL,ioos:station:DISL:CATA:1,2010-01-04T11:00:00Z,30.3085,-88.1395,2.403,3.7,1111122 
DISL,ioos:station:DISL:CATA:1,2010-01-04T11:30:00Z,30.3085,-88.1395,2.361,3.49,1111122 
DISL,ioos:station:DISL:CATA:1,2010-01-04T12:00:00Z,30.3085,-88.1395,2.321,3.33,1111122 
DISL,ioos:station:DISL:CATA:1,2010-01-04T12:30:00Z,30.3085,-88.1395,2.298,3.18,1111122 
DISL,ioos:station:DISL:CATA:1,2010-01-04T13:00:00Z,30.3085,-88.1395,2.29,3.06,1111122 
DISL,ioos:station:DISL:CATA:1,2010-01-04T13:30:00Z,30.3085,-88.1395,2.279,3.08,1111122 
DISL,ioos:station:DISL:CATA:1,2010-01-04T14:00:00Z,30.3085,-88.1395,2.258,3.18,1111122 
DISL,ioos:station:DISL:CATA:1,2010-01-04T14:30:00Z,30.3085,-88.1395,2.263,3.43,1111122 
DISL,ioos:station:DISL:CATA:1,2010-01-04T15:00:00Z,30.3085,-88.1395,2.272,3.42,1111122 
DISL,ioos:station:DISL:CATA:1,2010-01-04T15:30:00Z,30.3085,-88.1395,2.283,3.32,1111122 
DISL,ioos:station:DISL:CATA:1,2010-01-04T16:00:00Z,30.3085,-88.1395,2.276,3.22,1111122 
DISL,ioos:station:DISL:CATA:1,2010-01-04T16:30:00Z,30.3085,-88.1395,2.27,3.18,1111122 
DISL,ioos:station:DISL:CATA:1,2010-01-04T17:00:00Z,30.3085,-88.1395,2.271,3.07,1111122 
DISL,ioos:station:DISL:CATA:1,2010-01-04T17:30:00Z,30.3085,-88.1395,2.281,3.07,1111122 
DISL,ioos:station:DISL:CATA:1,2010-01-04T18:00:00Z,30.3085,-88.1395,2.28,3.07,1111122 
DISL,ioos:station:DISL:CATA:1,2010-01-04T18:30:00Z,30.3085,-88.1395,2.296,3.04,1111122 
DISL,ioos:station:DISL:CATA:1,2010-01-04T19:00:00Z,30.3085,-88.1395,2.318,3.27,1111122 
DISL,ioos:station:DISL:CATA:1,2010-01-04T19:30:00Z,30.3085,-88.1395,2.34,3.16,1111122 
DISL,ioos:station:DISL:CATA:1,2010-01-04T20:00:00Z,30.3085,-88.1395,2.355,2.96,1111122 
DISL,ioos:station:DISL:CATA:1,2010-01-04T20:30:00Z,30.3085,-88.1395,2.35,2.96,1111122 
DISL,ioos:station:DISL:CATA:1,2010-01-04T21:00:00Z,30.3085,-88.1395,2.349,3.06,1111122 
DISL,ioos:station:DISL:CATA:1,2010-01-04T21:30:00Z,30.3085,-88.1395,2.354,3.12,1111122 
DISL,ioos:station:DISL:CATA:1,2010-01-04T22:00:00Z,30.3085,-88.1395,2.354,3.29,1111122 
DISL,ioos:station:DISL:CATA:1,2010-01-04T22:30:00Z,30.3085,-88.1395,2.365,3.45,1111122 
DISL,ioos:station:DISL:CATA:1,2010-01-04T23:00:00Z,30.3085,-88.1395,2.367,5.33,1111122 
DISL,ioos:station:DISL:CATA:1,2010-01-04T23:30:00Z,30.3085,-88.1395,2.359,6.46,1111122 
DISL,ioos:station:DISL:CATA:1,2010-01-05T00:00:00Z,30.3085,-88.1395,2.36,7.74,1111122 
DISL,ioos:station:DISL:CATA:1,2010-01-05T00:30:00Z,30.3085,-88.1395,2.35,8.88,1111122 
DISL,ioos:station:DISL:CATA:1,2010-01-05T01:00:00Z,30.3085,-88.1395,2.361,8.88,1111122 
DISL,ioos:station:DISL:CATA:1,2010-01-05T01:30:00Z,30.3085,-88.1395,2.383,9.31,1111122 
DISL,ioos:station:DISL:CATA:1,2010-01-05T02:00:00Z,30.3085,-88.1395,2.39,9.41,1111122 
DISL,ioos:station:DISL:CATA:1,2010-01-05T02:30:00Z,30.3085,-88.1395,2.408,9.68,1111122 
DISL,ioos:station:DISL:CATA:1,2010-01-05T03:00:00Z,30.3085,-88.1395,2.411,9.55,1111122 
DISL,ioos:station:DISL:CATA:1,2010-01-05T03:30:00Z,30.3085,-88.1395,2.413,12.78,1111122 
DISL,ioos:station:DISL:CATA:1,2010-01-05T04:00:00Z,30.3085,-88.1395,2.421,12.22,1111122 
DISL,ioos:station:DISL:CATA:1,2010-01-05T04:30:00Z,30.3085,-88.1395,2.398,13.99,1111122 
DISL,ioos:station:DISL:CATA:1,2010-01-05T05:00:00Z,30.3085,-88.1395,2.411,14.16,1111122 
DISL,ioos:station:DISL:CATA:1,2010-01-05T05:30:00Z,30.3085,-88.1395,2.403,14.08,1111122 
DISL,ioos:station:DISL:CATA:1,2010-01-05T06:00:00Z,30.3085,-88.1395,2.399,13.05,1111122 
DISL,ioos:station:DISL:CATA:1,2010-01-05T06:30:00Z,30.3085,-88.1395,2.393,13.72,1111122 
DISL,ioos:station:DISL:CATA:1,2010-01-05T07:00:00Z,30.3085,-88.1395,2.378,13.94,1111122 
DISL,ioos:station:DISL:CATA:1,2010-01-05T07:30:00Z,30.3085,-88.1395,2.367,14.23,1111122 
DISL,ioos:station:DISL:CATA:1,2010-01-05T08:00:00Z,30.3085,-88.1395,2.375,14.47,1111122 
DISL,ioos:station:DISL:CATA:1,2010-01-05T08:30:00Z,30.3085,-88.1395,2.404,14.92,1111122 
DISL,ioos:station:DISL:CATA:1,2010-01-05T09:00:00Z,30.3085,-88.1395,2.394,13.24,1111122 
DISL,ioos:station:DISL:CATA:1,2010-01-05T09:30:00Z,30.3085,-88.1395,2.373,14.65,1111122 
DISL,ioos:station:DISL:CATA:1,2010-01-05T10:00:00Z,30.3085,-88.1395,2.347,15.21,1111122 
DISL,ioos:station:DISL:CATA:1,2010-01-05T10:30:00Z,30.3085,-88.1395,2.336,15.55,1111122 
DISL,ioos:station:DISL:CATA:1,2010-01-05T11:00:00Z,30.3085,-88.1395,2.316,15.2,1111122 
DISL,ioos:station:DISL:CATA:1,2010-01-05T11:30:00Z,30.3085,-88.1395,2.295,15.49,1111122 
DISL,ioos:station:DISL:CATA:1,2010-01-05T12:00:00Z,30.3085,-88.1395,2.28,14.59,1111122 
DISL,ioos:station:DISL:CATA:1,2010-01-05T12:30:00Z,30.3085,-88.1395,2.25,11.6,1111122 
DISL,ioos:station:DISL:CATA:1,2010-01-05T13:00:00Z,30.3085,-88.1395,2.243,8.19,1111122 
DISL,ioos:station:DISL:CATA:1,2010-01-05T13:30:00Z,30.3085,-88.1395,2.235,7.1,1111122 
DISL,ioos:station:DISL:CATA:1,2010-01-05T14:00:00Z,30.3085,-88.1395,2.223,6.81,1111122 
DISL,ioos:station:DISL:CATA:1,2010-01-05T14:30:00Z,30.3085,-88.1395,2.206,6.69,1111122 
DISL,ioos:station:DISL:CATA:1,2010-01-05T15:00:00Z,30.3085,-88.1395,2.217,6.45,1111122 
DISL,ioos:station:DISL:CATA:1,2010-01-05T15:30:00Z,30.3085,-88.1395,2.221,6.33,1111122 
DISL,ioos:station:DISL:CATA:1,2010-01-05T16:00:00Z,30.3085,-88.1395,2.223,6.36,1111122 
DISL,ioos:station:DISL:CATA:1,2010-01-05T16:30:00Z,30.3085,-88.1395,2.228,5.94,1111122 
DISL,ioos:station:DISL:CATA:1,2010-01-05T17:00:00Z,30.3085,-88.1395,2.246,5.9,1111122 
DISL,ioos:station:DISL:CATA:1,2010-01-05T17:30:00Z,30.3085,-88.1395,2.251,6.08,1111122 
DISL,ioos:station:DISL:CATA:1,2010-01-05T18:00:00Z,30.3085,-88.1395,2.249,6.2,1111122 
DISL,ioos:station:DISL:CATA:1,2010-01-05T18:30:00Z,30.3085,-88.1395,2.258,6.1,1111122 
DISL,ioos:station:DISL:CATA:1,2010-01-05T19:00:00Z,30.3085,-88.1395,2.264,5.93,1111122 
DISL,ioos:station:DISL:CATA:1,2010-01-05T19:30:00Z,30.3085,-88.1395,2.267,5.58,1111122 
DISL,ioos:station:DISL:CATA:1,2010-01-05T20:00:00Z,30.3085,-88.1395,2.29,5.62,1111122 
DISL,ioos:station:DISL:CATA:1,2010-01-05T20:30:00Z,30.3085,-88.1395,2.302,5.83,1111122 
DISL,ioos:station:DISL:CATA:1,2010-01-05T21:00:00Z,30.3085,-88.1395,2.314,5.81,1111122 
DISL,ioos:station:DISL:CATA:1,2010-01-05T21:30:00Z,30.3085,-88.1395,2.328,6.15,1111122 
DISL,ioos:station:DISL:CATA:1,2010-01-05T22:00:00Z,30.3085,-88.1395,2.324,5.95,1111122 
DISL,ioos:station:DISL:CATA:1,2010-01-05T22:30:00Z,30.3085,-88.1395,2.318,7.68,1111122 
DISL,ioos:station:DISL:CATA:1,2010-01-05T23:00:00Z,30.3085,-88.1395,2.319,9.09,1111122 
DISL,ioos:station:DISL:CATA:1,2010-01-05T23:30:00Z,30.3085,-88.1395,2.316,10.42,1111122 
DISL,ioos:station:DISL:CATA:1,2010-01-06T00:00:00Z,30.3085,-88.1395,2.305,11.21,1111122 
DISL,ioos:station:DISL:CATA:1,2010-01-06T00:30:00Z,30.3085,-88.1395,2.3,11.41,1111122 
DISL,ioos:station:DISL:CATA:1,2010-01-06T01:00:00Z,30.3085,-88.1395,2.295,11.48,1111122 
DISL,ioos:station:DISL:CATA:1,2010-01-06T01:30:00Z,30.3085,-88.1395,2.295,10.75,1111122 
DISL,ioos:station:DISL:CATA:1,2010-01-06T02:00:00Z,30.3085,-88.1395,2.294,8.86,1111122 
DISL,ioos:station:DISL:CATA:1,2010-01-06T02:30:00Z,30.3085,-88.1395,2.292,7.1,1111122 
DISL,ioos:station:DISL:CATA:1,2010-01-06T03:00:00Z,30.3085,-88.1395,2.299,6.23,1111122 
DISL,ioos:station:DISL:CATA:1,2010-01-06T03:30:00Z,30.3085,-88.1395,2.291,5.9,1111122 
DISL,ioos:station:DISL:CATA:1,2010-01-06T04:00:00Z,30.3085,-88.1395,2.292,5.7,1111122 
DISL,ioos:station:DISL:CATA:1,2010-01-06T04:30:00Z,30.3085,-88.1395,2.288,5.56,1111122 
DISL,ioos:station:DISL:CATA:1,2010-01-06T05:00:00Z,30.3085,-88.1395,2.281,5.62,1111122 
DISL,ioos:station:DISL:CATA:1,2010-01-06T05:30:00Z,30.3085,-88.1395,2.283,5.37,1111122 
DISL,ioos:station:DISL:CATA:1,2010-01-06T06:00:00Z,30.3085,-88.1395,2.26,5.71,1111122 
DISL,ioos:station:DISL:CATA:1,2010-01-06T06:30:00Z,30.3085,-88.1395,2.25,5.83,1111122 
DISL,ioos:station:DISL:CATA:1,2010-01-06T07:00:00Z,30.3085,-88.1395,2.244,5.85,1111122 
DISL,ioos:station:DISL:CATA:1,2010-01-06T07:30:00Z,30.3085,-88.1395,2.247,5.89,1111122 
DISL,ioos:station:DISL:CATA:1,2010-01-06T08:00:00Z,30.3085,-88.1395,2.243,5.75,1111122 
DISL,ioos:station:DISL:CATA:1,2010-01-06T08:30:00Z,30.3085,-88.1395,2.242,5.83,1111122 
DISL,ioos:station:DISL:CATA:1,2010-01-06T09:00:00Z,30.3085,-88.1395,2.239,5.7,1111122 
DISL,ioos:station:DISL:CATA:1,2010-01-06T09:30:00Z,30.3085,-88.1395,2.238,5.72,1111122 
DISL,ioos:station:DISL:CATA:1,2010-01-06T10:00:00Z,30.3085,-88.1395,2.224,5.76,1111122 
DISL,ioos:station:DISL:CATA:1,2010-01-06T10:30:00Z,30.3085,-88.1395,2.217,5.71,1111122 
DISL,ioos:station:DISL:CATA:1,2010-01-06T11:00:00Z,30.3085,-88.1395,2.192,5.6,1111122 
DISL,ioos:station:DISL:CATA:1,2010-01-06T11:30:00Z,30.3085,-88.1395,2.188,5.46,1111122 
DISL,ioos:station:DISL:CATA:1,2010-01-06T12:00:00Z,30.3085,-88.1395,2.194,5.43,1111122 
DISL,ioos:station:DISL:CATA:1,2010-01-06T12:30:00Z,30.3085,-88.1395,2.187,5.44,1111122 
DISL,ioos:station:DISL:CATA:1,2010-01-06T13:00:00Z,30.3085,-88.1395,2.185,5.39,1111122 
DISL,ioos:station:DISL:CATA:1,2010-01-06T13:30:00Z,30.3085,-88.1395,2.202,5.37,1111122 
DISL,ioos:station:DISL:CATA:1,2010-01-06T14:00:00Z,30.3085,-88.1395,2.225,5.29,1111122 
DISL,ioos:station:DISL:CATA:1,2010-01-06T14:30:00Z,30.3085,-88.1395,2.244,5.28,1111122 
DISL,ioos:station:DISL:CATA:1,2010-01-06T15:00:00Z,30.3085,-88.1395,2.262,5.26,1111122 